User: anonymous   Login
Location: Ladysmith
(45.4630°N, 91.1040°W)
Time: 07:08:56
(UTC-05:00)
Language:

SO-67 - Orbit

View from above orbital plane
View from above orbital plane
View from above satellite
View from above satellite

Ground track
Ground track

The orbit data is extracted from the following two-line orbital elements,

1 35870U 09049F   15211.11046417  .00006108  00000-0  14184-3 0  9995
2 35870 097.1351 226.5362 0003385 079.8974 358.3109 15.42715254326736
Epoch (UTC): 30 July 2015 02:39:04
Eccentricity: 0.0003385
inclination: 97.1351°
perigee height: 436 km
apogee height: 440 km
right ascension of ascending node: 226.5362°
argument of perigee: 79.8974°
revolutions per day: 15.42715254
mean anomaly at epoch: 358.3109°
orbit number at epoch: 32673

The dashed part of the orbit path shows where the satellite is in the earth's shadow,  

DLR